Regional Weather Roundup
Issued by NWS

Home | Current Version | Previous Version | Graphics & Text | Print | Product List | Glossary On
Versions: 1 2 3 4 5 6 7 8 9 10 11 12 13 14 15 16 17 18 19 20 21 22 23 24 25 26 27 28 29 30 31 32 33 34 35 36 37 38 39 40 41 42 43 44 45 46 47 48 49 50
000
ASUS43 KLOT 112210
RWRIL

ILLINOIS REGIONAL WEATHER ROUNDUP
NATIONAL WEATHER SERVICE CHICAGO/ROMEOVILLE IL
500 PM CDT FRI JUL 11 2014

NOTE: "FAIR" INDICATES FEW OR NO CLOUDS BELOW 12,000 FEET WITH NO
SIGNIFICANT WEATHER AND/OR OBSTRUCTIONS TO VISIBILITY.

* THESE STATIONS ARE NOT UNDER NWS QUALITY CONTROL. THEY ALSO MAY NOT
  REPORT WEATHER SUCH AS PRECIPITATION OR FOG.

ILZ001-002-007-009-015-016-024-112300-
NORTHWEST ILLINOIS

CITY           SKY/WX    TMP DP  RH WIND       PRES   REMARKS
MOLINE         CLOUDY    78  66  66 S8        30.07R HX  80
STERLING*      CLOUDY    77  63  61 S6        30.11R
SAVANNA*       CLOUDY    75  63  66 SE9       30.07F
$$

ILZ003-004-008-010-011-017-018-112300-
NORTH CENTRAL ILLINOIS

CITY           SKY/WX    TMP DP  RH WIND       PRES   REMARKS
ROCKFORD       LGT RAIN  75  57  53 S7        30.11S
FREEPORT*      CLOUDY    74  61  65 S10       30.12S
ROCHELLE*      CLOUDY    76  60  57 S7        30.11F
DE KALB*       CLOUDY    76  58  53 S12       30.11F
PERU*          CLOUDY    81  61  51 SE13      30.11S HX  82
$$

ILZ005-006-012>014-019>023-112300-
NORTHEAST ILLINOIS

CITY           SKY/WX    TMP DP  RH WIND       PRES   REMARKS
CHICAGO-OHARE  LGT RAIN  73  56  54 S10       30.09F
CHICAGO-MIDWAY CLOUDY    81  51  35 S12       30.09F HX  80
AURORA         CLOUDY    78  56  46 S12       30.11F
LANSING*       PTSUNNY   78  52  40 S6        30.13F
JOLIET*        PTSUNNY   77  56  48 S7        30.12F
WAUKEGAN       CLOUDY    71  56  58 SE7       30.10F
DUPAGE AIRPORT CLOUDY    76  55  48 S7        30.10F
KANKAKEE*      PTSUNNY   78  60  55 SE8       30.13F
WHEELING       LGT RAIN  74  59  59 S7        30.11F
MORRIS*        CLOUDY    78  61  55 S5        30.11S HX  80
ROMEOVILLE*    PTSUNNY   77  55  46 S10       30.11F
NORTHERLY ISL    N/A     71  61  70 E12         N/A
$$

LMZ740>746-112300-
SOUTHERN LAKE MICHIGAN

STATION/POSITION SKY/WX   TEMP    WIND        PRES    VSBY  WAVE
                          AIR SEA DIR/SP/G                  HT/PER
                          (F)     (DEG/KT/KT) (MB)    (MI)  (FT/S)
SOUTHERN BUOY              65 64  140/  8/  8 1020.0F         0
WAUKEGAN HARBOR            69     140/ 14/ 16 1020.0F
HARRISON CRIB              71     110/ 15/ 17   N/A
BURNHAM HARBOR             71     110/ 10/ 10   N/A
CALUMET HARBOR             74      80/  7/  9 1020.6F
MICHIGAN CITY              73      20/  6/  7   N/A
$$

ILZ025>027-034>036-040-047-049-050-058-095>099-112300-
WEST-CENTRAL ILLINOIS

CITY           SKY/WX    TMP DP  RH WIND       PRES   REMARKS
QUINCY         PTSUNNY   83  70  64 S8        30.06S HX  87
GALESBURG*     PTSUNNY   79  68  69 S6        30.11R HX  81
MACOMB*        PTSUNNY   78  68  69 SE6       30.12R HX  81
JACKSONVILLE*  PTSUNNY   85  69  58 SE13      30.10F HX  89
PITTSFIELD*    PTSUNNY   85  70  60 SE10      30.08F HX  89
$$

ILZ028>032-037-038-041>044-048-051>054-059>061-112300-
CENTRAL ILLINOIS

CITY           SKY/WX    TMP DP  RH WIND       PRES   REMARKS
PONTIAC        PTSUNNY   79  61  53 S6        30.12S HAZE    HX  80
BLOOMINGTON    MOSUNNY   81  63  54 S14       30.13F HX  82
DECATUR        SUNNY     83  61  47 S10       30.12F HX  83
PEORIA         PTSUNNY   83  64  52 S12       30.10S HX  84
LACON*         PTSUNNY   80  64  58 S10G16    30.09S HX  82
LINCOLN*       MOSUNNY   84  65  52 S8        30.07F HX  86
SPRINGFIELD    PTSUNNY   85  67  54 S9        30.10F HX  87
TAYLORVILLE    MOSUNNY   81  64  57 S8        30.11F HX  82
$$

ILZ033-039-045-046-055>057-062-063-112300-
EAST-CENTRAL ILLINOIS

CITY           SKY/WX    TMP DP  RH WIND       PRES   REMARKS
CHAMPAIGN      MOSUNNY   84  61  45 S10       30.13F HX  84
RANTOUL*       MOSUNNY   83  58  43 SE8       30.14F HX  82
MATTOON        SUNNY     84  58  40 S8        30.13F HX  83
PARIS*         MOSUNNY   82  63  53 S8        30.15S HX  83
$$

ILZ079-100>102-112300-
SOUTHWEST ILLINOIS

CITY           SKY/WX    TMP DP  RH WIND       PRES   REMARKS
ALTON          MOSUNNY   84  68  58 SE9       30.10  HX  87
BELLEVILLE     MOSUNNY   87  71  57 VRB6      30.09F HX  93
CAHOKIA*       MOSUNNY   89  69  51 SE9G18    30.08F HX  93
SPARTA*        SUNNY     86  68  54 S9        30.11F HX  89
$$

ILZ064>066-069>071-074>076-080>082-084>086-088>090-092>094-112300-
SOUTH-CENTRAL ILLINOIS

CITY           SKY/WX    TMP DP  RH WIND       PRES   REMARKS
CARBONDALE     SUNNY     88  66  48 S7        30.11F HX  90
CAIRO*         MOSUNNY   91  65  42 SE5       30.11F HX  93
MARION         MOSUNNY   88  68  51 SW9       30.13F HX  91
MT. VERNON     PTSUNNY   90  66  45 S8        30.13S HX  92
CENTRALIA*     SUNNY     90  62  39 SE7       30.11F HX  91
SALEM*         SUNNY     88  64  44 S5        30.12F HX  89
METROPOLIS*    SUNNY     88  60  38 S6        30.11F HX  87
$$

ILZ067-068-072-073-078-083-087-091-112300-
SOUTHEAST ILLINOIS

CITY           SKY/WX    TMP DP  RH WIND       PRES   REMARKS
FLORA*         SUNNY     85  61  44 SW9       30.13S HX  85
HARRISBURG*    SUNNY     87  64  46 SW6       30.13F HX  88
ROBINSON*      SUNNY     88  56  33 SE5       30.14F HX  86
CARMI*         SUNNY     87  68  52 S6        30.12S HX  90
$$

ABBREVIATIONS USED IN REMARKS
   TC - TEMPERATURE IN CELSIUS
  WCI - WIND CHILL INDEX
   HX - HEAT INDEX
  VSB - VISIBILITY
$$



USA.gov is the U.S. government's official web portal to all federal, state and local government web resources and services.